EW6058 Weather Reports


Display with metric or nautical units.
time (UTC)temp
F
wind
direction
speed
MPH
gust
MPH
rain 1hr
in
rain 24hr
in
rain mn
in
humidity
%
barometer
mb
20200401104423 34 52 0.0 0.0 0.00 0.00 0.00 96 1008.1
20200401103406 34 69 0.0 0.0 0.00 0.00 0.00 96 1008.2
20200401102406 33 69 0.0 0.0 0.00 0.00 0.00 96 1008.3
20200401101336 33 69 0.0 1.0 0.00 0.01 0.00 96 1008.4
20200401100318 33 58 0.0 0.0 0.00 0.01 0.00 96 1008.4
20200401095326 33 56 0.0 2.0 0.00 0.01 0.00 96 1008.5
20200401094334 33 62 0.0 0.0 0.00 0.01 0.00 95 1008.9
20200401093348 33 56 0.0 0.0 0.00 0.01 0.00 95 1008.9
20200401092357 33 58 0.0 0.0 0.00 0.01 0.00 95 1008.8
20200401091351 33 65 0.0 1.0 0.00 0.02 0.00 95 1009.2
20200401090351 33 52 0.0 0.0 0.00 0.02 0.00 95 1009.2
20200401085334 33 71 0.0 0.0 0.00 0.02 0.00 95 1009.6
20200401084318 33 79 0.0 0.0 0.00 0.02 0.00 95 1010.2
20200401083251 33 97 0.0 0.0 0.00 0.03 0.00 95 1010.2
20200401082227 33 97 0.0 0.0 0.00 0.03 0.00 96 1010.6
20200401081243 33 97 0.0 0.0 0.00 0.03 0.00 95 1010.9
20200401080221 33 97 0.0 0.0 0.00 0.03 0.00 96 1010.9
20200401075214 33 97 0.0 0.0 0.00 0.03 0.00 96 1010.7
20200401074206 33 97 0.0 0.0 0.00 0.03 0.00 96 1010.8
20200401073153 32 97 0.0 0.0 0.00 0.03 0.00 96 1010.8
20200401072209 32 97 0.0 0.0 0.00 0.03 0.00 96 1010.4
20200401071154 32 97 0.0 0.0 0.00 0.03 0.00 96 1010.3
20200401070142 32 97 0.0 0.0 0.00 0.03 0.00 96 1010.3
20200401065159 32 97 0.0 0.0 0.00 0.03 0.00 96 1010.4
20200401064212 31 97 0.0 0.0 0.00 0.03 0.00 96 1011.1
20200401063156 31 97 0.0 0.0 0.00 0.03 0.00 95 1011.1
20200401062125 31 97 0.0 0.0 0.00 0.03 0.00 95 1011.0
20200401061101 30 97 0.0 0.0 0.00 0.03 0.00 95 1011.1
20200401060056 30 97 0.0 0.0 0.00 0.03 0.00 95 1011.1
20200401055110 30 97 0.0 0.0 0.00 0.04 0.00 95 1011.4
20200401054050 29 97 0.0 0.0 0.00 0.04 0.00 95 1012.0
20200401053017 29 97 0.0 0.0 0.00 0.04 0.00 95 1012.0
20200401052006 28 97 0.0 0.0 0.00 0.04 0.00 95 1012.4
20200401051021 28 97 0.0 0.0 0.00 0.04 0.00 94 1012.6
20200401050023 28 97 0.0 0.0 0.00 0.04 0.00 94 1012.6
20200401045007 28 97 0.0 0.0 0.00 0.04 0.00 93 1012.6
20200401043948 28 97 0.0 0.0 0.00 0.04 0.00 94 1013.0
20200401042921 28 97 0.0 0.0 0.00 0.04 0.00 93 1013.0
20200401041901 28 97 0.0 0.0 0.00 0.04 0.00 93 1013.2
20200401040919 28 97 0.0 0.0 0.00 0.04 0.00 93 1013.2
20200401035928 28 97 0.0 0.0 0.00 0.04 0.04 93 1013.2
20200401034947 28 97 0.0 0.0 0.00 0.04 0.04 93 1013.3
20200401033930 28 97 0.0 0.0 0.00 0.04 0.04 93 1013.5
20200401032915 28 97 0.0 0.0 0.00 0.04 0.04 93 1013.5
20200401031920 28 97 0.0 0.0 0.00 0.04 0.04 92 1013.6
20200401030944 28 97 0.0 0.0 0.00 0.04 0.04 92 1013.7
20200401025938 28 97 0.0 0.0 0.00 0.04 0.04 92 1013.7
20200401024908 28 97 0.0 0.0 0.00 0.04 0.04 92 1013.7
20200401023841 28 97 0.0 0.0 0.00 0.04 0.04 91 1013.8
20200401022840 28 97 0.0 0.0 0.00 0.04 0.04 91 1013.9
20200401021840 28 97 0.0 0.0 0.00 0.04 0.04 90 1013.9
20200401020812 28 97 0.0 0.0 0.00 0.04 0.04 90 1013.9
20200401015808 28 97 0.0 0.0 0.00 0.04 0.04 89 1014.0
20200401014828 29 97 0.0 0.0 0.00 0.04 0.04 89 1014.0
20200401013805 29 97 0.0 0.0 0.00 0.04 0.04 88 1014.1
20200401012733 29 97 0.0 0.0 0.00 0.04 0.04 88 1014.1
20200401011722 30 97 0.0 0.0 0.00 0.05 0.04 87 1014.1
20200401010701 30 97 0.0 0.0 0.00 0.05 0.04 86 1014.2
20200401005637 30 97 0.0 0.0 0.00 0.05 0.04 86 1014.3
20200401004605 31 97 0.0 0.0 0.00 0.05 0.04 85 1014.3
20200401003613 32 97 0.0 0.0 0.00 0.05 0.04 84 1014.6
20200401002553 32 97 0.0 0.0 0.00 0.05 0.04 83 1014.5
20200401001614 33 97 0.0 0.0 0.00 0.05 0.04 82 1014.5
20200401000620 33 97 0.0 0.0 0.00 0.05 0.04 81 1014.4
20200331235607 34 97 0.0 0.0 0.00 0.05 0.04 80 1014.3
20200331234632 34 97 0.0 0.0 0.00 0.05 0.04 80 1014.3
20200331233601 34 93 0.0 0.0 0.00 0.05 0.04 79 1014.4
20200331232536 35 174 0.0 0.0 0.00 0.05 0.04 78 1014.2
20200331231502 35 96 0.0 0.0 0.00 0.05 0.04 77 1014.2
20200331230503 35 76 0.0 4.0 0.00 0.06 0.04 76 1014.2
20200331225434 36 79 1.0 0.0 0.00 0.07 0.04 75 1014.3
20200331224431 36 89 1.0 6.0 0.00 0.07 0.04 74 1014.3
20200331223446 36 145 0.0 6.0 0.00 0.07 0.04 73 1014.3
20200331222452 37 83 0.0 0.0 0.00 0.07 0.04 72 1014.5
20200331221420 37 59 1.0 9.0 0.00 0.07 0.04 71 1014.5
20200331220420 37 76 0.0 0.0 0.00 0.07 0.04 71 1014.5
20200331215423 37 51 2.0 7.0 0.00 0.07 0.04 70 1014.5
20200331214446 38 37 0.0 7.0 0.00 0.07 0.04 70 1014.5
20200331213426 38 75 1.0 7.0 0.00 0.07 0.04 69 1014.5
20200331212449 38 58 1.0 7.0 0.00 0.07 0.04 69 1014.6
20200331211424 39 192 1.0 6.0 0.00 0.07 0.04 67 1014.6
20200331210432 39 169 0.0 2.0 0.00 0.07 0.04 68 1014.7
20200331205441 39 209 1.0 1.0 0.00 0.07 0.04 67 1014.6
20200331204432 39 96 2.0 7.0 0.00 0.07 0.04 66 1014.6
20200331203409 39 160 1.0 0.0 0.00 0.07 0.04 67 1014.9
20200331202401 39 59 1.0 7.0 0.00 0.07 0.04 67 1015.2
20200331201343 38 62 1.0 9.0 0.00 0.07 0.04 69 1015.2
20200331200356 39 69 1.0 7.0 0.00 0.07 0.04 69 1015.2
20200331195407 39 21 0.0 2.0 0.00 0.07 0.04 73 1015.1
20200331194349 38 0 1.0 5.0 0.00 0.07 0.04 73 1015.3
20200331193327 38 88 0.0 4.0 0.00 0.07 0.04 76 1015.3
20200331192335 38 148 0.0 6.0 0.00 0.07 0.04 76 1015.5
20200331191336 38 82 0.0 2.0 0.00 0.07 0.04 79 1015.9
20200331190356 38 96 0.0 3.0 0.00 0.07 0.04 76 1015.9
20200331185331 38 82 1.0 7.0 0.00 0.07 0.04 73 1015.6
20200331184303 39 78 0.0 1.0 0.00 0.07 0.04 73 1015.6
20200331183247 39 32 0.0 5.0 0.00 0.07 0.04 74 1015.6
20200331182312 39 71 0.0 0.0 0.00 0.07 0.04 75 1015.6
20200331181337 39 47 0.0 0.0 0.00 0.07 0.04 75 1015.6
20200331180320 39 104 0.0 5.0 0.00 0.07 0.04 73 1015.6
20200331175324 39 95 0.0 0.0 0.00 0.07 0.04 72 1015.4
20200331174316 39 0 0.0 3.0 0.00 0.07 0.04 72 1015.3
20200331173250 39 357 1.0 8.0 0.00 0.07 0.04 73 1015.3
20200331172242 39 133 2.0 8.0 0.00 0.07 0.04 73 1015.2
20200331171252 39 54 1.0 7.0 0.00 0.07 0.04 71 1015.0
20200331170233 40 144 1.0 6.0 0.00 0.07 0.04 73 1015.0
20200331165225 40 56 0.0 1.0 0.00 0.07 0.04 78 1014.8
20200331164151 41 17 1.0 7.0 0.00 0.07 0.04 78 1015.3
20200331163206 41 100 1.0 6.0 0.00 0.07 0.04 74 1015.3
20200331162149 40 35 1.0 10.0 0.00 0.07 0.04 76 1015.1
20200331161135 40 56 1.0 10.0 0.00 0.07 0.04 78 1015.3
20200331160142 40 114 2.0 7.0 0.00 0.07 0.04 76 1015.3
20200331155118 41 51 1.0 9.0 0.00 0.07 0.04 82 1015.4
20200331154139 41 4 1.0 7.0 0.00 0.07 0.04 78 1015.1
20200331153118 41 37 1.0 9.0 0.00 0.07 0.04 78 1015.1
20200331152058 41 25 1.0 7.0 0.00 0.07 0.04 76 1015.2
20200331151115 41 69 2.0 7.0 0.00 0.07 0.04 75 1015.4
20200331150057 41 82 1.0 0.0 0.00 0.07 0.04 74 1015.4
20200331145104 41 71 2.0 10.0 0.00 0.07 0.04 69 1015.6
20200331144118 41 54 0.0 5.0 0.00 0.07 0.04 72 1015.7
20200331143046 40 44 2.0 10.0 0.00 0.07 0.04 70 1015.7
20200331142050 40 83 1.0 10.0 0.00 0.07 0.04 71 1015.7
20200331141112 40 72 1.0 7.0 0.00 0.07 0.04 74 1015.8
20200331140117 40 95 1.0 9.0 0.00 0.07 0.04 75 1015.8
20200331135109 40 1 1.0 5.0 0.00 0.07 0.04 77 1016.0
20200331134110 40 80 0.0 5.0 0.00 0.07 0.04 79 1015.9
20200331133052 40 80 0.0 6.0 0.00 0.07 0.04 80 1015.9
20200331132046 39 196 0.0 2.0 0.00 0.07 0.04 81 1016.3
20200331131043 39 65 0.0 6.0 0.00 0.07 0.04 84 1016.2
20200331130030 38 31 0.0 7.0 0.00 0.07 0.04 87 1016.2
20200331125014 38 82 0.0 0.0 0.00 0.07 0.04 89 1016.0
20200331124023 38 141 0.0 0.0 0.00 0.07 0.04 90 1015.8
20200331123018 38 88 0.0 1.0 0.00 0.07 0.04 92 1015.8
20200331122000 38 76 0.0 2.0 0.00 0.07 0.04 93 1015.6
20200331120944 38 75 0.0 0.0 0.00 0.07 0.04 94 1015.5
20200331120006 37 18 0.0 6.0 0.00 0.07 0.04 94 1015.5
20200331114945 37 73 0.0 3.0 0.00 0.07 0.04 95 1015.5
20200331113938 37 62 0.0 0.0 0.00 0.07 0.04 95 1015.4
20200331112959 37 61 0.0 2.0 0.00 0.07 0.04 96 1015.4
20200331111933 37 4 0.0 0.0 0.00 0.07 0.04 96 1015.1
20200331110941 37 103 0.0 0.0 0.00 0.07 0.04 96 1015.0
20200331105913 37 116 0.0 0.0 0.00 0.07 0.04 96 1015.0
20200331104857 37 20 0.0 0.0 0.00 0.07 0.04 96 1014.7